Flag for Canada Weather past 2 weeks in Iqaluit, Nunavut Territory, Canada

Now
14 °F

Light snow. Ice fog.


Feels Like: -1 °F
Forecast: N/A
Wind: 14 mph from Southeast

Location: Iqaluit

Current Time: Dec 22, 2014 at 4:26:27 PM

Latest Report: Dec 22, 2014 at 3:00 PM


Visibility: 2 mi

Pressure: 29.98 "Hg

Humidity: 79%

Dew point: 9 °F

Location of IqaluitLocation

Historic Weather in Iqaluit — Graph

°F

Iqaluit temperature yesterday

Maximum temperature yesterday: 0 °F (at 10:00 PM)
Minimum temperature yesterday: -11 °F (at 1:00 AM)
Average temperature yesterday: -8 °F

Past Weeks' High & Low Weather Summary

 TemperatureHumidityPressure
High23 °F (Dec 11, 8:00 AM)86% (Dec 13, 10:00 PM)30.53 "Hg (Dec 13, 10:00 PM)
Low-27 °F (Dec 20, 5:00 AM)58% (Dec 11, 4:00 AM)29.38 "Hg (Dec 14, 12:00 PM)
Average-5 °F71%29.98 "Hg
* Reported Dec 7 3:00 PM — Dec 22 3:00 PM, Iqaluit, Weather by CustomWeather, © 2014

Note: Actual official high and low records may vary slightly from our data, if they occured in-between our weather recording intervals... More about our weather records

Advertising

Iqaluit weather history for previous 24 hours

 ConditionsComfort  
Time TempWeatherWind HumidityBarometerVisibility
3:00 PM
Dec 22
14 °FLight snow. Ice fog.14 mph79%29.98 "Hg2 mi
2:53 PM14 °FLight snow. Ice fog.14 mph79%29.97 "Hg2 mi
2:00 PM12 °FLight snow. Passing clouds.15 mph85%29.97 "Hg4 mi
1:00 PM12 °FLight snow. Ice fog.15 mph79%29.99 "Hg2 mi
12:00 PM10 °FLight snow. Ice fog.9 mph79%30.00 "Hg2 mi
11:53 AM10 °FLight snow. Ice fog.13 mph79%30.00 "Hg2 mi
11:00 AM10 °FLight snow. Overcast.12 mph79%30.02 "Hg3 mi
10:00 AM10 °FLight snow. Overcast.12 mph79%30.03 "Hg3 mi
9:00 AM9 °FLight snow. Overcast.9 mph85%30.05 "Hg2 mi
8:00 AM9 °FLight snow. Overcast.8 mph78%30.05 "Hg4 mi
7:00 AM9 °FLight snow. Mostly cloudy.8 mph78%30.06 "Hg8 mi
6:00 AM7 °FLight snow. Overcast.8 mph78%30.06 "Hg12 mi
5:00 AM7 °FSnow flurries. Overcast.8 mph78%30.08 "Hg12 mi
4:00 AM3 °FSnow flurries. Mostly cloudy.3 mph85%30.09 "Hg10 mi
3:00 AM3 °FSnow flurries. Mostly cloudy.5 mph78%30.10 "Hg8 mi
2:00 AM3 °FSnow flurries. Overcast.2 mph78%30.11 "Hg10 mi
1:00 AM1 °FSnow flurries. Mostly cloudy.No wind78%30.11 "Hg12 mi
12:00 AM1 °FLight snow. Overcast.No wind78%30.11 "Hg8 mi
11:00 PM
Dec 21
0 °FLight snow. Ice fog.No wind84%30.11 "Hg3 mi
10:00 PM0 °FLight snow. Ice fog.No wind78%30.11 "Hg3 mi
9:00 PM-2 °FOvercast.2 mph77%30.12 "Hg10 mi
8:00 PM-2 °FLight snow. Overcast.No wind77%30.12 "Hg5 mi
7:00 PM-2 °FLight snow. Overcast.No wind71%30.11 "Hg5 mi
6:00 PM-4 °FLight snow. Overcast.No wind77%30.11 "Hg5 mi
5:00 PM-4 °FLight snow. Overcast.2 mph71%30.10 "Hg5 mi
4:00 PM-6 °FLight snow. Overcast.2 mph70%30.10 "Hg5 mi
Weather by CustomWeather, © 2014

See weather overviewHow to use our weather pages